Location: Unspecified
(58.9933°N, 5.6375°E)
Time: 19:24:53
(UTC+01:00)

Cosmos 2058 - Visible Passes

Search period start: 21 January 2018 00:00
Search period end: 31 January 2018 00:00
Orbit: 564 x 584 km, 82.5° (Epoch: 21 January)

Date Brightness Start Highest point End Pass type
(mag) Time Alt. Az. Time Alt. Az. Time Alt. Az.
21 Jan 6.1 04:01:24 11° NE 04:01:33 11° NE 04:02:44 10° ENE visible
21 Jan 4.0 05:37:40 26° N 05:39:38 45° ENE 05:43:42 10° SE visible
21 Jan 3.7 07:13:54 17° NW 07:16:28 30° W 07:20:09 10° SSW visible
21 Jan 5.0 18:11:02 10° ESE 18:11:18 11° ESE 18:11:18 11° ESE visible
21 Jan 4.2 19:45:28 10° S 19:47:37 30° S 19:47:37 30° S visible
22 Jan 6.0 04:05:12 13° NE 04:05:12 13° NE 04:06:54 10° ENE visible
22 Jan 3.6 05:41:27 35° NNE 05:42:55 55° ENE 05:47:04 10° SSE visible
22 Jan 4.0 07:17:42 18° NW 07:19:36 25° W 07:23:03 10° SW visible
22 Jan 4.4 18:13:40 10° SE 18:15:56 17° E 18:15:56 17° E visible
22 Jan 3.2 19:48:41 10° SSW 19:52:15 62° SSW 19:52:15 62° SSW visible
22 Jan 6.0 21:27:49 10° W 21:28:33 13° W 21:28:33 13° W visible
23 Jan 5.9 04:09:05 14° ENE 04:09:05 14° ENE 04:10:49 10° E visible
23 Jan 3.2 05:45:21 52° NNE 05:46:12 68° ENE 05:50:23 10° SSE visible
23 Jan 4.2 07:21:37 19° WNW 07:22:44 21° W 07:25:53 10° SW visible
23 Jan 4.1 18:16:24 10° SE 18:19:36 21° E 18:20:30 20° ENE visible
23 Jan 3.2 19:51:58 10° SSW 19:56:09 66° WNW 19:56:48 56° NNW visible
23 Jan 5.9 21:31:36 10° W 21:33:06 14° WNW 21:33:06 14° WNW visible
24 Jan 5.8 04:13:08 15° ENE 04:13:08 15° ENE 04:14:37 10° E visible
24 Jan 2.9 05:49:25 82° ENE 05:49:27 83° ENE 05:53:40 10° SSE visible
24 Jan 4.4 07:25:41 17° W 07:25:50 17° W 07:28:38 10° SW visible
24 Jan 3.9 18:19:14 10° SE 18:22:43 26° E 18:24:56 17° NE visible
24 Jan 3.6 19:55:18 10° SSW 19:59:25 54° WNW 20:01:14 30° N visible
24 Jan 6.0 21:35:33 10° WNW 21:37:23 12° NW 21:37:32 12° NW visible
25 Jan 5.8 04:17:20 14° E 04:17:20 14° E 04:18:19 10° ESE visible
25 Jan 3.3 05:53:37 53° S 05:53:37 53° S 05:56:53 10° S visible
25 Jan 4.7 07:29:54 14° W 07:29:54 14° W 07:31:14 10° WSW visible
25 Jan 3.7 18:22:09 10° SSE 18:25:52 31° E 18:29:15 12° NNE visible
25 Jan 4.0 19:58:40 10° SW 20:02:43 44° WNW 20:05:32 18° N visible
25 Jan 6.2 21:39:48 10° WNW 21:40:49 11° NW 21:41:49 10° NNW visible
26 Jan 5.9 04:21:41 11° ESE 04:21:41 11° ESE 04:21:56 10° ESE visible
26 Jan 4.2 05:57:59 28° S 05:57:59 28° S 06:00:03 10° S visible
26 Jan 3.4 18:25:08 10° SSE 18:29:02 38° E 18:32:57 10° NNE visible
26 Jan 4.4 20:02:05 10° SW 20:06:01 36° WNW 20:09:40 12° N visible
27 Jan 5.1 06:02:27 15° S 06:02:27 15° S 06:03:11 10° S visible
27 Jan 3.2 18:28:10 10° SSE 18:32:12 46° E 18:36:16 10° NNE visible
27 Jan 4.8 20:05:34 10° SW 20:09:19 31° WNW 20:13:08 10° N visible
28 Jan 3.0 18:31:16 10° S 18:35:24 57° E 18:39:34 10° NNE visible
28 Jan 5.1 20:09:06 10° WSW 20:12:39 26° WNW 20:16:15 10° N visible
29 Jan 2.9 18:34:25 10° S 18:38:36 71° E 18:42:50 10° NNE visible
29 Jan 5.3 20:12:40 10° WSW 20:16:01 22° WNW 20:19:23 10° N visible
30 Jan 2.9 18:37:36 10° S 18:41:50 86° E 18:46:05 10° NNE visible
30 Jan 5.6 20:16:19 10° WSW 20:19:23 19° NW 20:22:27 10° N visible
